This is the latest recevied weather packets stored in our database for station/object YO8SSH-13. If no packets are shown the sender has not sent any weather packets the latest 1 day(s).
| Time | Temp. | Humidity | Pressure | Rain* | Wind** | Luminosity | Snow |
|---|---|---|---|---|---|---|---|
| 1777999826 | 25° C | 23% | 1009 hPa | 0 mm | 0.45 m/s, 112° | - | - |
| 1777998927 | 26.11° C | 22% | 1009 hPa | 0 mm | 0 m/s | - | - |
| 1777998026 | 26.67° C | 21% | 1010 hPa | 0 mm | 0 m/s | - | - |
| 1777997125 | 27.22° C | 21% | 1010 hPa | 0 mm | 0 m/s | - | - |
| 1777996226 | 27.78° C | 21% | 1010 hPa | 0 mm | 0.45 m/s, 135° | - | - |
| 1777995326 | 28.33° C | 20% | 1010 hPa | 0 mm | 0.89 m/s, 112° | - | - |
| 1777994426 | 28.33° C | 20% | 1010 hPa | 0 mm | 0.89 m/s, 158° | - | - |
| 1777993527 | 28.33° C | 21% | 1010 hPa | 0 mm | 1.34 m/s, 135° | - | - |
| 1777992626 | 28.89° C | 21% | 1010 hPa | 0 mm | 1.79 m/s, 90° | - | - |
| 1777991726 | 28.89° C | 20% | 1010 hPa | 0 mm | 0 m/s | - | - |
| 1777990825 | 28.89° C | 21% | 1010 hPa | 0 mm | 0 m/s | - | - |
| 1777989928 | 28.89° C | 20% | 1010 hPa | 0 mm | 0.45 m/s, 180° | - | - |
| 1777989026 | 29.44° C | 20% | 1010 hPa | 0 mm | 0 m/s | - | - |
| 1777988126 | 30° C | 20% | 1010 hPa | 0 mm | 1.79 m/s, 90° | - | - |
| 1777987225 | 29.44° C | 20% | 1010 hPa | 0 mm | 0 m/s | - | - |
| 1777986326 | 30° C | 20% | 1010 hPa | 0 mm | 0.89 m/s, 135° | - | - |
| 1777985426 | 30° C | 20% | 1010 hPa | 0 mm | 1.79 m/s, 180° | - | - |
| 1777984527 | 29.44° C | 20% | 1011 hPa | 0 mm | 1.79 m/s, 180° | - | - |
| 1777983625 | 29.44° C | 20% | 1011 hPa | 0 mm | 1.34 m/s, 180° | - | - |
| 1777983369 | 29.44° C | 20% | 1011 hPa | 0 mm | 0.45 m/s, 180° | - | - |
| 1777982470 | 29.44° C | 19% | 1011 hPa | 0 mm | 1.79 m/s, 68° | - | - |
| 1777981568 | 28.89° C | 20% | 1011 hPa | 0 mm | 0 m/s | - | - |
| 1777980668 | 29.44° C | 20% | 1011 hPa | 0 mm | 2.68 m/s, 90° | - | - |
| 1777979770 | 28.89° C | 22% | 1011 hPa | 0 mm | 0.89 m/s, 22° | - | - |
| 1777979348 | 28.33° C | 22% | 1011 hPa | 0 mm | 3.58 m/s, 158° | - | - |
* Rain latest hour (hover to see other rain measurements)
** Current wind speed in m/s (hover to see current wind gust speed)